Location: ČR
(50.0000°N, 15.0000°E)
Time: 20:01:42
(UTC+00:00)

Vanguard 3 - Pass Details

Date: 28 October 2021
Orbit: 508 x 3260 km, 33.4° (Epoch: 04 December)

Event Time Altitude Azimuth Distance (km) Brightness Sun altitude
Rises 19:34:58 0° 253° (WSW) 4,100 11.3 -37.0°
Reaches altitude 10° 19:38:44 10° 233° (SW) 3,573 10.6 -37.6°
Maximum altitude 19:44:11 17° 198° (SSW) 3,659 10.3 -38.3°
Enters shadow 19:44:20 17° 197° (SSW) 3,676 10.3 -38.4°
Drops below altitude 10° 19:51:19 10° 165° (SSE) 4,894 - -39.3°
Sets 19:58:08 0° 149° (SSE) 6,459 - -40.3°
